OPS 8314 (2)

Satellite information

Favourite Embed

Satellite Type and Status

PAYLOADIN ORBIT

Key statistics

Satellite OPS 8314 (2) at a glance.

Uptime

19430

Days in orbit

Revolutions

≈ 12.6

Per day

Orbit

SSO

Sun Synchronous Orbit

Inclination

95.6

Latest

Satellite identification and parameters

Extended collection of information and parameters for OPS 8314 (2).

Object identification

Identified? True

Debris? False

Object name: OPS 8314 (2)

International designator: 1972-079C

Object number (NORAD): 6822

Object ID (CCSDS): 6822

Country: UNITED STATES OF AMERICA (US)

Current information (Y/N): Y

RCS size: MEDIUM

Orbital parameters

Period: 114.684 minutes

Inclination: 95.6478 deg

SMA: 7819.192 km

Apoapsis: 1464.501 km

Periapsis: 1417.614 km

RAAN: 300.813 deg

Eccentricy: 0.00299823

Argument of periapsis: 157.3283 deg

Mean anomaly: 217.2859 deg

Mean motion: 12.55624919 rev/day

Mean motion (dot): -0.00000008 rev/day2

B* drag term: 0.000027519362 1/REarth

Two-line elements (TLE)

Creation date: Dec. 20, 2025, 3:40 a.m.

Reference frame: TEME

Reference center: EARTH

Epoch: Dec. 19, 2025, 8:32 p.m. UTC

TLE line 0: 0 OPS 8314 (2)

TLE line 1: 1 06822U 72079C 25353.85563325 -.00000008 00000-0 27519-4 0 9995

TLE line 2: 2 06822 95.6478 300.8130 0029982 157.3283 217.2859 12.55624919437207

Live tracking on map

Real-time ground track for satellite OPS 8314 (2).

In-orbit conjunctions

There are no conjunctions computed for OPS 8314 (2), at the moment. Check back to stay up to date, as we update our databases every day.

Go to all conjunctions

Associated space launch

Large reconnaissance satellite equipped with four return capsules.

OPS 8314 (2) was lifted into orbit during the mission ‘Titan IIID | KH-9 4’, on board a Titan IIID space rocket.

The launch took place on Oct. 10, 1972, 6:03 p.m. from Space Launch Complex 4E.

For more information about the launch, click the button.

Launch to space Titan IIID | KH-9 4
Titan IIID | KH-9 4

Agency: N/A

Status: Launch Successful

Launch date: Oct. 10, 1972, 6:03 p.m. UTC

Rocket: Titan IIID

Launch pad: Space Launch Complex 4E

Location: Vandenberg SFB, CA, USA

...

Latest news about this satellite

There are no fresh news available about this satellite. Check back as we update our databases every day.


Newsletter sign-up

Weekly statistics, charts and insights to help you stay on top of the space industry.